| time (UTC) | temp F | wind direction | speed MPH | gust MPH | rain 1hr in | rain 24hr in | rain mn in | humidity % | barometer mb |
| 20260902101104 | 62 | 133 | 0.0 | 2.0 | 0.00 | 0.00 | 0.00 | 26 | 1015.6 |
| 20260902100604 | 62 | 133 | 0.0 | 2.0 | 0.00 | 0.00 | 0.00 | 26 | 1015.7 |
| 20260902100105 | 62 | 133 | 1.0 | 1.0 | 0.00 | 0.00 | 0.00 | 26 | 1015.7 |
| 20260902095606 | 62 | 133 | 0.0 | 2.0 | 0.00 | 0.00 | 0.00 | 26 | 1015.7 |
| 20260902095104 | 62 | 133 | 1.0 | 2.0 | 0.00 | 0.00 | 0.00 | 28 | 1015.8 |
| 20260902094604 | 62 | 133 | 1.0 | 2.0 | 0.00 | 0.00 | 0.00 | 28 | 1015.8 |
| 20260902094104 | 62 | 133 | 0.0 | 2.0 | 0.00 | 0.00 | 0.00 | 28 | 1015.8 |
| 20260902093604 | 63 | 133 | 1.0 | 2.0 | 0.00 | 0.00 | 0.00 | 28 | 1015.8 |
| 20260902093103 | 63 | 133 | 1.0 | 2.0 | 0.00 | 0.00 | 0.00 | 27 | 1015.9 |
| 20260902092604 | 63 | 133 | 1.0 | 2.0 | 0.00 | 0.00 | 0.00 | 27 | 1016.0 |
| 20260902092104 | 63 | 133 | 1.0 | 1.0 | 0.00 | 0.00 | 0.00 | 27 | 1016.1 |
| 20260902091604 | 63 | 133 | 0.0 | 1.0 | 0.00 | 0.00 | 0.00 | 26 | 1016.0 |
| 20260902091104 | 63 | 133 | 0.0 | 1.0 | 0.00 | 0.00 | 0.00 | 26 | 1016.0 |
| 20260902085606 | 64 | 133 | 0.0 | 2.0 | 0.00 | 0.00 | 0.00 | 28 | 1016.1 |
| 20260902085105 | 63 | 133 | 0.0 | 1.0 | 0.00 | 0.00 | 0.00 | 28 | 1016.1 |
| 20260902084604 | 64 | 133 | 0.0 | 1.0 | 0.00 | 0.00 | 0.00 | 29 | 1016.1 |
| 20260902084104 | 64 | 133 | 0.0 | 2.0 | 0.00 | 0.00 | 0.00 | 29 | 1016.1 |
| 20260902083604 | 64 | 133 | 1.0 | 2.0 | 0.00 | 0.00 | 0.00 | 28 | 1016.1 |
| 20260902082605 | 64 | 133 | 0.0 | 1.0 | 0.00 | 0.00 | 0.00 | 30 | 1016.1 |
| 20260902082104 | 64 | 133 | 0.0 | 1.0 | 0.00 | 0.00 | 0.00 | 30 | 1016.0 |
| 20260902081604 | 65 | 133 | 0.0 | 1.0 | 0.00 | 0.00 | 0.00 | 30 | 1016.1 |
| 20260902081103 | 65 | 133 | 0.0 | 1.0 | 0.00 | 0.00 | 0.00 | 31 | 1016.1 |
| 20260902080603 | 64 | 133 | 0.0 | 1.0 | 0.00 | 0.00 | 0.00 | 33 | 1016.0 |
| 20260902080104 | 64 | 133 | 0.0 | 2.0 | 0.00 | 0.00 | 0.00 | 32 | 1016.0 |
| 20260902075604 | 64 | 133 | 0.0 | 2.0 | 0.00 | 0.00 | 0.00 | 32 | 1016.0 |
| 20260902075104 | 64 | 133 | 0.0 | 1.0 | 0.00 | 0.00 | 0.00 | 32 | 1016.0 |
| 20260902074103 | 65 | 133 | 0.0 | 1.0 | 0.00 | 0.00 | 0.00 | 28 | 1016.0 |
| 20260902073604 | 65 | 133 | 0.0 | 1.0 | 0.00 | 0.00 | 0.00 | 27 | 1016.0 |
| 20260902072605 | 65 | 133 | 0.0 | 1.0 | 0.00 | 0.00 | 0.00 | 26 | 1015.7 |
| 20260902071604 | 65 | 133 | 0.0 | 1.0 | 0.00 | 0.00 | 0.00 | 26 | 1015.6 |
| 20260902071104 | 65 | 133 | 0.0 | 1.0 | 0.00 | 0.00 | 0.00 | 27 | 1015.5 |
| 20260902070607 | 65 | 133 | 0.0 | 1.0 | 0.00 | 0.00 | 0.00 | 27 | 1015.5 |
| 20260902065608 | 66 | 133 | 0.0 | 1.0 | 0.00 | 0.00 | 0.00 | 28 | 1015.4 |
| 20260902065104 | 66 | 133 | 0.0 | 0.0 | 0.00 | 0.00 | 0.00 | 28 | 1015.4 |
| 20260902064604 | 66 | 133 | 0.0 | 1.0 | 0.00 | 0.00 | 0.00 | 27 | 1015.4 |
| 20260902064104 | 66 | 133 | 0.0 | 1.0 | 0.00 | 0.00 | 0.00 | 28 | 1015.4 |
| 20260902063604 | 67 | 133 | 1.0 | 1.0 | 0.00 | 0.00 | 0.00 | 28 | 1015.5 |
| 20260902063104 | 67 | 133 | 0.0 | 1.0 | 0.00 | 0.00 | 0.00 | 26 | 1015.5 |
| 20260902062604 | 67 | 133 | 0.0 | 1.0 | 0.00 | 0.00 | 0.00 | 27 | 1015.5 |
| 20260902062104 | 67 | 133 | 0.0 | 1.0 | 0.00 | 0.00 | 0.00 | 26 | 1015.5 |
| 20260902061104 | 68 | 133 | 0.0 | 1.0 | 0.00 | 0.00 | 0.00 | 25 | 1015.4 |
| 20260902060603 | 68 | 133 | 0.0 | 0.0 | 0.00 | 0.00 | 0.00 | 25 | 1015.3 |
| 20260902055604 | 68 | 133 | 0.0 | 1.0 | 0.00 | 0.00 | 0.00 | 25 | 1015.2 |
| 20260902055104 | 68 | 133 | 0.0 | 1.0 | 0.00 | 0.00 | 0.00 | 25 | 1015.1 |
| 20260902054604 | 68 | 133 | 0.0 | 1.0 | 0.00 | 0.00 | 0.00 | 25 | 1015.2 |
| 20260902054104 | 68 | 133 | 0.0 | 1.0 | 0.00 | 0.00 | 0.00 | 25 | 1015.2 |
| 20260902053604 | 69 | 133 | 0.0 | 2.0 | 0.00 | 0.00 | 0.00 | 25 | 1015.2 |
| 20260902053104 | 69 | 133 | 1.0 | 2.0 | 0.00 | 0.00 | 0.00 | 24 | 1015.2 |
| 20260902052604 | 69 | 133 | 0.0 | 1.0 | 0.00 | 0.00 | 0.00 | 24 | 1015.3 |
| 20260902052104 | 69 | 133 | 0.0 | 1.0 | 0.00 | 0.00 | 0.00 | 23 | 1015.4 |
| 20260902051604 | 70 | 133 | 0.0 | 0.0 | 0.00 | 0.00 | 0.00 | 23 | 1015.4 |
| 20260902051104 | 70 | 133 | 0.0 | 0.0 | 0.00 | 0.00 | 0.00 | 23 | 1015.4 |
| 20260902050607 | 70 | 133 | 0.0 | 0.0 | 0.00 | 0.00 | 0.00 | 24 | 1015.3 |
| 20260902050104 | 70 | 133 | 0.0 | 0.0 | 0.00 | 0.00 | 0.00 | 24 | 1015.4 |
| 20260902045608 | 71 | 133 | 0.0 | 1.0 | 0.00 | 0.00 | 0.00 | 23 | 1015.3 |
| 20260902045104 | 71 | 133 | 0.0 | 1.0 | 0.00 | 0.00 | 0.00 | 22 | 1015.4 |
| 20260902044604 | 71 | 133 | 0.0 | 2.0 | 0.00 | 0.00 | 0.00 | 22 | 1015.3 |
| 20260902044104 | 72 | 133 | 0.0 | 2.0 | 0.00 | 0.00 | 0.00 | 22 | 1015.2 |
| 20260902043604 | 72 | 137 | 0.0 | 1.0 | 0.00 | 0.00 | 0.00 | 21 | 1015.1 |
| 20260902043104 | 72 | 137 | 0.0 | 2.0 | 0.00 | 0.00 | 0.00 | 20 | 1015.1 |
| 20260902042104 | 72 | 132 | 0.0 | 1.0 | 0.00 | 0.00 | 0.00 | 21 | 1015.0 |
| 20260902041604 | 72 | 128 | 0.0 | 2.0 | 0.00 | 0.00 | 0.00 | 20 | 1014.9 |
| 20260902040604 | 73 | 128 | 0.0 | 2.0 | 0.00 | 0.00 | 0.00 | 20 | 1014.7 |
| 20260902040104 | 72 | 180 | 0.0 | 2.0 | 0.00 | 0.00 | 0.00 | 20 | 1014.6 |
| 20260902035610 | 72 | 150 | 0.0 | 2.0 | 0.00 | 0.00 | 0.00 | 20 | 1014.5 |
| 20260902035103 | 73 | 136 | 0.0 | 2.0 | 0.00 | 0.00 | 0.00 | 21 | 1014.5 |
| 20260902034604 | 73 | 139 | 0.0 | 2.0 | 0.00 | 0.00 | 0.00 | 22 | 1014.5 |
| 20260902033604 | 73 | 169 | 0.0 | 2.0 | 0.00 | 0.00 | 0.00 | 23 | 1014.4 |
| 20260902033104 | 73 | 169 | 0.0 | 2.0 | 0.00 | 0.00 | 0.00 | 23 | 1014.3 |
| 20260902032604 | 74 | 170 | 0.0 | 2.0 | 0.00 | 0.00 | 0.00 | 23 | 1014.1 |
| 20260902032104 | 74 | 169 | 0.0 | 2.0 | 0.00 | 0.00 | 0.00 | 23 | 1014.1 |
| 20260902031604 | 74 | 173 | 0.0 | 3.0 | 0.00 | 0.00 | 0.00 | 24 | 1013.9 |
| 20260902031106 | 74 | 165 | 0.0 | 3.0 | 0.00 | 0.00 | 0.00 | 24 | 1013.8 |
| 20260902030603 | 75 | 182 | 0.0 | 2.0 | 0.00 | 0.00 | 0.00 | 25 | 1013.7 |
| 20260902030104 | 75 | 184 | 1.0 | 2.0 | 0.00 | 0.00 | 0.00 | 25 | 1013.7 |
| 20260902025608 | 75 | 173 | 1.0 | 3.0 | 0.00 | 0.00 | 0.00 | 25 | 1013.7 |
| 20260902025104 | 76 | 194 | 1.0 | 3.0 | 0.00 | 0.00 | 0.00 | 26 | 1013.7 |
| 20260902024603 | 76 | 196 | 1.0 | 2.0 | 0.00 | 0.00 | 0.00 | 26 | 1013.7 |
| 20260902024104 | 76 | 180 | 1.0 | 3.0 | 0.00 | 0.00 | 0.00 | 25 | 1013.7 |
| 20260902023604 | 77 | 198 | 1.0 | 3.0 | 0.00 | 0.00 | 0.00 | 25 | 1013.6 |
| 20260902023104 | 77 | 172 | 1.0 | 3.0 | 0.00 | 0.00 | 0.00 | 25 | 1013.6 |
| 20260902022604 | 78 | 182 | 1.0 | 2.0 | 0.00 | 0.00 | 0.00 | 24 | 1013.5 |
| 20260902022104 | 78 | 196 | 0.0 | 2.0 | 0.00 | 0.00 | 0.00 | 24 | 1013.5 |
| 20260902020604 | 80 | 232 | 0.0 | 2.0 | 0.00 | 0.00 | 0.00 | 23 | 1013.3 |
| 20260902020105 | 81 | 231 | 1.0 | 3.0 | 0.00 | 0.00 | 0.00 | 22 | 1013.2 |
| 20260902015605 | 81 | 225 | 1.0 | 3.0 | 0.00 | 0.00 | 0.00 | 21 | 1013.2 |
| 20260902015104 | 82 | 231 | 1.0 | 3.0 | 0.00 | 0.00 | 0.00 | 22 | 1013.3 |
| 20260902014604 | 82 | 220 | 1.0 | 3.0 | 0.00 | 0.00 | 0.00 | 21 | 1013.2 |
| 20260902013604 | 83 | 186 | 1.0 | 3.0 | 0.00 | 0.00 | 0.00 | 21 | 1013.2 |
| 20260902012604 | 84 | 231 | 2.0 | 3.0 | 0.00 | 0.00 | 0.00 | 21 | 1013.1 |
| 20260902012104 | 84 | 259 | 2.0 | 3.0 | 0.00 | 0.00 | 0.00 | 21 | 1013.1 |
| 20260902011604 | 84 | 261 | 2.0 | 7.0 | 0.00 | 0.00 | 0.00 | 21 | 1013.1 |
| 20260902011104 | 84 | 228 | 2.0 | 7.0 | 0.00 | 0.00 | 0.00 | 21 | 1013.1 |
| 20260902010607 | 84 | 241 | 2.0 | 7.0 | 0.00 | 0.00 | 0.00 | 21 | 1013.1 |
| 20260902010105 | 85 | 265 | 3.0 | 7.0 | 0.00 | 0.00 | 0.00 | 21 | 1013.1 |
| 20260902005608 | 85 | 259 | 3.0 | 6.0 | 0.00 | 0.00 | 0.00 | 21 | 1013.1 |
| 20260902005104 | 86 | 260 | 3.0 | 6.0 | 0.00 | 0.00 | 0.00 | 21 | 1013.1 |
| 20260902004104 | 86 | 244 | 3.0 | 7.0 | 0.00 | 0.00 | 0.00 | 21 | 1013.0 |
| 20260902003604 | 87 | 255 | 2.0 | 7.0 | 0.00 | 0.00 | 0.00 | 22 | 1013.0 |
| 20260902003106 | 87 | 257 | 4.0 | 7.0 | 0.00 | 0.00 | 0.00 | 21 | 1013.1 |
| 20260902002605 | 87 | 257 | 2.0 | 5.0 | 0.00 | 0.00 | 0.00 | 22 | 1013.1 |
| 20260902002104 | 87 | 259 | 3.0 | 9.0 | 0.00 | 0.00 | 0.00 | 22 | 1013.1 |
| 20260902001104 | 86 | 265 | 6.0 | 10.0 | 0.00 | 0.00 | 0.00 | 21 | 1013.1 |
| 20260902000604 | 87 | 261 | 4.0 | 10.0 | 0.00 | 0.00 | 0.00 | 22 | 1013.1 |
| 20260902000105 | 87 | 250 | 3.0 | 10.0 | 0.00 | 0.00 | 0.00 | 22 | 1013.1 |
| 20260901235608 | 87 | 233 | 3.0 | 8.0 | 0.00 | 0.00 | 0.00 | 22 | 1013.1 |
| 20260901235104 | 87 | 261 | 4.0 | 8.0 | 0.00 | 0.00 | 0.00 | 23 | 1013.1 |
| 20260901234604 | 87 | 248 | 4.0 | 8.0 | 0.00 | 0.00 | 0.00 | 22 | 1013.1 |
| 20260901234104 | 87 | 265 | 3.0 | 7.0 | 0.00 | 0.00 | 0.00 | 23 | 1013.1 |
| 20260901233604 | 87 | 252 | 4.0 | 7.0 | 0.00 | 0.00 | 0.00 | 22 | 1013.0 |
| 20260901233104 | 88 | 258 | 4.0 | 8.0 | 0.00 | 0.00 | 0.00 | 23 | 1013.1 |
| 20260901232604 | 88 | 262 | 4.0 | 8.0 | 0.00 | 0.00 | 0.00 | 22 | 1013.1 |
| 20260901232104 | 88 | 250 | 4.0 | 12.0 | 0.00 | 0.00 | 0.00 | 22 | 1013.1 |
| 20260901231604 | 88 | 268 | 5.0 | 12.0 | 0.00 | 0.00 | 0.00 | 21 | 1013.1 |
| 20260901230603 | 88 | 248 | 3.0 | 9.0 | 0.00 | 0.00 | 0.00 | 21 | 1013.1 |
| 20260901225606 | 88 | 241 | 3.0 | 8.0 | 0.00 | 0.00 | 0.00 | 22 | 1013.1 |
| 20260901225103 | 88 | 256 | 3.0 | 7.0 | 0.00 | 0.00 | 0.00 | 23 | 1013.1 |
| 20260901224603 | 89 | 263 | 4.0 | 7.0 | 0.00 | 0.00 | 0.00 | 22 | 1013.2 |
| 20260901224104 | 89 | 180 | 2.0 | 7.0 | 0.00 | 0.00 | 0.00 | 21 | 1013.2 |
| 20260901223604 | 88 | 265 | 5.0 | 7.0 | 0.00 | 0.00 | 0.00 | 22 | 1013.3 |
| 20260901223104 | 88 | 294 | 3.0 | 8.0 | 0.00 | 0.00 | 0.00 | 22 | 1013.3 |
| 20260901222604 | 88 | 266 | 2.0 | 8.0 | 0.00 | 0.00 | 0.00 | 23 | 1013.4 |
| 20260901222104 | 88 | 262 | 3.0 | 10.0 | 0.00 | 0.00 | 0.00 | 22 | 1013.5 |
| 20260901221604 | 88 | 262 | 4.0 | 10.0 | 0.00 | 0.00 | 0.00 | 22 | 1013.5 |
| 20260901221104 | 88 | 274 | 2.0 | 7.0 | 0.00 | 0.00 | 0.00 | 23 | 1013.5 |
| 20260901220604 | 88 | 251 | 2.0 | 8.0 | 0.00 | 0.00 | 0.00 | 21 | 1013.6 |
| 20260901220105 | 88 | 264 | 5.0 | 8.0 | 0.00 | 0.00 | 0.00 | 22 | 1013.6 |
| 20260901215607 | 88 | 276 | 3.0 | 8.0 | 0.00 | 0.00 | 0.00 | 20 | 1013.6 |
| 20260901215104 | 88 | 262 | 5.0 | 8.0 | 0.00 | 0.00 | 0.00 | 20 | 1013.6 |
| 20260901214604 | 88 | 266 | 3.0 | 6.0 | 0.00 | 0.00 | 0.00 | 21 | 1013.6 |
| 20260901214103 | 88 | 261 | 3.0 | 7.0 | 0.00 | 0.00 | 0.00 | 20 | 1013.7 |
| 20260901213103 | 88 | 276 | 3.0 | 7.0 | 0.00 | 0.00 | 0.00 | 20 | 1013.8 |
| 20260901212604 | 88 | 274 | 2.0 | 7.0 | 0.00 | 0.00 | 0.00 | 20 | 1014.0 |
| 20260901212104 | 88 | 264 | 2.0 | 5.0 | 0.00 | 0.00 | 0.00 | 19 | 1013.9 |
| 20260901211603 | 88 | 169 | 2.0 | 5.0 | 0.00 | 0.00 | 0.00 | 19 | 1014.0 |
| 20260901211104 | 88 | 264 | 2.0 | 6.0 | 0.00 | 0.00 | 0.00 | 19 | 1014.0 |
| 20260901210605 | 87 | 255 | 2.0 | 6.0 | 0.00 | 0.00 | 0.00 | 18 | 1014.2 |
| 20260901210104 | 88 | 271 | 2.0 | 6.0 | 0.00 | 0.00 | 0.00 | 18 | 1014.2 |
| 20260901205608 | 87 | 271 | 2.0 | 3.0 | 0.00 | 0.00 | 0.00 | 17 | 1014.2 |
| 20260901205104 | 87 | 298 | 2.0 | 3.0 | 0.00 | 0.00 | 0.00 | 19 | 1014.2 |
| 20260901204604 | 86 | 248 | 1.0 | 5.0 | 0.00 | 0.00 | 0.00 | 18 | 1014.2 |
| 20260901204104 | 86 | 264 | 2.0 | 7.0 | 0.00 | 0.00 | 0.00 | 18 | 1014.3 |
| 20260901203604 | 87 | 255 | 3.0 | 7.0 | 0.00 | 0.00 | 0.00 | 17 | 1014.3 |
| 20260901203103 | 87 | 273 | 2.0 | 6.0 | 0.00 | 0.00 | 0.00 | 17 | 1014.3 |
| 20260901202603 | 86 | 280 | 2.0 | 6.0 | 0.00 | 0.00 | 0.00 | 17 | 1014.3 |
| 20260901202104 | 85 | 271 | 1.0 | 6.0 | 0.00 | 0.00 | 0.00 | 17 | 1014.4 |
| 20260901201604 | 86 | 271 | 3.0 | 6.0 | 0.00 | 0.00 | 0.00 | 17 | 1014.6 |
| 20260901201105 | 86 | 271 | 2.0 | 6.0 | 0.00 | 0.00 | 0.00 | 18 | 1014.6 |
| 20260901200604 | 86 | 266 | 3.0 | 6.0 | 0.00 | 0.00 | 0.00 | 18 | 1014.7 |
| 20260901200104 | 86 | 248 | 2.0 | 5.0 | 0.00 | 0.00 | 0.00 | 18 | 1014.8 |
| 20260901195604 | 86 | 256 | 2.0 | 5.0 | 0.00 | 0.00 | 0.00 | 18 | 1014.8 |
| 20260901195106 | 85 | 346 | 2.0 | 5.0 | 0.00 | 0.00 | 0.00 | 18 | 1014.8 |
| 20260901194603 | 85 | 276 | 2.0 | 5.0 | 0.00 | 0.00 | 0.00 | 19 | 1014.8 |
| 20260901194104 | 85 | 257 | 2.0 | 5.0 | 0.00 | 0.00 | 0.00 | 20 | 1014.8 |
| 20260901193604 | 85 | 270 | 2.0 | 5.0 | 0.00 | 0.00 | 0.00 | 19 | 1014.8 |
| 20260901193104 | 84 | 263 | 2.0 | 5.0 | 0.00 | 0.00 | 0.00 | 19 | 1014.9 |
| 20260901192604 | 84 | 274 | 3.0 | 5.0 | 0.00 | 0.00 | 0.00 | 19 | 1015.0 |
| 20260901191604 | 84 | 279 | 2.0 | 5.0 | 0.00 | 0.00 | 0.00 | 20 | 1015.1 |
| 20260901191104 | 85 | 283 | 3.0 | 3.0 | 0.00 | 0.00 | 0.00 | 21 | 1015.1 |
| 20260901190607 | 85 | 319 | 2.0 | 3.0 | 0.00 | 0.00 | 0.00 | 21 | 1015.2 |
| 20260901190104 | 85 | 296 | 2.0 | 3.0 | 0.00 | 0.00 | 0.00 | 19 | 1015.3 |
| 20260901185606 | 84 | 9 | 2.0 | 3.0 | 0.00 | 0.00 | 0.00 | 20 | 1015.3 |
| 20260901185105 | 84 | 215 | 2.0 | 3.0 | 0.00 | 0.00 | 0.00 | 19 | 1015.3 |
| 20260901184604 | 84 | 262 | 2.0 | 3.0 | 0.00 | 0.00 | 0.00 | 20 | 1015.3 |
| 20260901184104 | 83 | 268 | 2.0 | 3.0 | 0.00 | 0.00 | 0.00 | 21 | 1015.4 |
| 20260901183604 | 83 | 312 | 1.0 | 3.0 | 0.00 | 0.00 | 0.00 | 21 | 1015.3 |
| 20260901182603 | 82 | 270 | 1.0 | 3.0 | 0.00 | 0.00 | 0.00 | 23 | 1015.4 |
| 20260901182106 | 81 | 269 | 1.0 | 3.0 | 0.00 | 0.00 | 0.00 | 22 | 1015.4 |
| 20260901181604 | 81 | 264 | 2.0 | 3.0 | 0.00 | 0.00 | 0.00 | 24 | 1015.4 |
| 20260901181104 | 81 | 262 | 1.0 | 3.0 | 0.00 | 0.00 | 0.00 | 23 | 1015.4 |
| 20260901180604 | 81 | 257 | 2.0 | 3.0 | 0.00 | 0.00 | 0.00 | 23 | 1015.3 |
| 20260901180105 | 80 | 297 | 2.0 | 3.0 | 0.00 | 0.00 | 0.00 | 25 | 1015.3 |
| 20260901175609 | 80 | 291 | 2.0 | 3.0 | 0.00 | 0.00 | 0.00 | 25 | 1015.4 |
| 20260901175104 | 79 | 254 | 1.0 | 3.0 | 0.00 | 0.00 | 0.00 | 25 | 1015.4 |
| 20260901174604 | 79 | 285 | 1.0 | 3.0 | 0.00 | 0.00 | 0.00 | 26 | 1015.4 |
| 20260901174104 | 78 | 276 | 1.0 | 3.0 | 0.00 | 0.00 | 0.00 | 27 | 1015.3 |
| 20260901173603 | 78 | 312 | 2.0 | 3.0 | 0.00 | 0.00 | 0.00 | 27 | 1015.3 |
| 20260901173104 | 77 | 270 | 1.0 | 3.0 | 0.00 | 0.00 | 0.00 | 27 | 1015.3 |
| 20260901172603 | 77 | 291 | 1.0 | 3.0 | 0.00 | 0.00 | 0.00 | 27 | 1015.3 |
| 20260901172104 | 77 | 271 | 2.0 | 3.0 | 0.00 | 0.00 | 0.00 | 28 | 1015.3 |
| 20260901171604 | 77 | 285 | 1.0 | 3.0 | 0.00 | 0.00 | 0.00 | 29 | 1015.3 |
| 20260901171104 | 76 | 310 | 1.0 | 3.0 | 0.00 | 0.00 | 0.00 | 29 | 1015.3 |
| 20260901170603 | 76 | 255 | 1.0 | 3.0 | 0.00 | 0.00 | 0.00 | 29 | 1015.3 |
| 20260901170104 | 76 | 311 | 1.0 | 3.0 | 0.00 | 0.00 | 0.00 | 28 | 1015.3 |
| 20260901165607 | 75 | 287 | 1.0 | 3.0 | 0.00 | 0.00 | 0.00 | 29 | 1015.3 |
| 20260901165103 | 75 | 305 | 2.0 | 3.0 | 0.00 | 0.00 | 0.00 | 28 | 1015.3 |
| 20260901164604 | 75 | 279 | 1.0 | 3.0 | 0.00 | 0.00 | 0.00 | 29 | 1015.3 |
| 20260901163604 | 74 | 302 | 1.0 | 3.0 | 0.00 | 0.00 | 0.00 | 28 | 1015.3 |
| 20260901163105 | 73 | 274 | 1.0 | 3.0 | 0.00 | 0.00 | 0.00 | 28 | 1015.2 |
| 20260901162604 | 73 | 276 | 1.0 | 3.0 | 0.00 | 0.00 | 0.00 | 29 | 1015.3 |
| 20260901162104 | 72 | 263 | 1.0 | 3.0 | 0.00 | 0.00 | 0.00 | 30 | 1015.1 |
| 20260901161604 | 72 | 291 | 1.0 | 3.0 | 0.00 | 0.00 | 0.00 | 31 | 1014.9 |
| 20260901161104 | 72 | 194 | 1.0 | 5.0 | 0.00 | 0.00 | 0.00 | 34 | 1014.9 |
| 20260901160604 | 71 | 132 | 1.0 | 5.0 | 0.00 | 0.00 | 0.00 | 35 | 1014.9 |
| 20260901155607 | 71 | 88 | 1.0 | 3.0 | 0.00 | 0.00 | 0.00 | 33 | 1014.8 |
| 20260901155104 | 71 | 88 | 1.0 | 3.0 | 0.00 | 0.00 | 0.00 | 37 | 1014.8 |
| 20260901154604 | 70 | 88 | 1.0 | 3.0 | 0.00 | 0.00 | 0.00 | 35 | 1014.8 |
| 20260901154103 | 70 | 88 | 1.0 | 3.0 | 0.00 | 0.00 | 0.00 | 32 | 1014.8 |
| 20260901153103 | 70 | 92 | 0.0 | 1.0 | 0.00 | 0.00 | 0.00 | 32 | 1014.8 |
| 20260901152604 | 70 | 92 | 0.0 | 2.0 | 0.00 | 0.00 | 0.00 | 34 | 1014.8 |
| 20260901152104 | 70 | 92 | 0.0 | 2.0 | 0.00 | 0.00 | 0.00 | 33 | 1014.8 |
| 20260901151603 | 70 | 92 | 0.0 | 2.0 | 0.00 | 0.00 | 0.00 | 34 | 1014.8 |
| 20260901151104 | 70 | 92 | 0.0 | 1.0 | 0.00 | 0.00 | 0.00 | 32 | 1014.7 |
| 20260901150604 | 69 | 92 | 0.0 | 0.0 | 0.00 | 0.00 | 0.00 | 32 | 1014.7 |
| 20260901145607 | 67 | 92 | 0.0 | 1.0 | 0.00 | 0.00 | 0.00 | 34 | 1014.7 |
| 20260901145104 | 66 | 92 | 0.0 | 0.0 | 0.00 | 0.00 | 0.00 | 34 | 1014.7 |
| 20260901144604 | 65 | 92 | 0.0 | 0.0 | 0.00 | 0.00 | 0.00 | 35 | 1014.7 |
| 20260901144104 | 64 | 92 | 0.0 | 0.0 | 0.00 | 0.00 | 0.00 | 37 | 1014.7 |
| 20260901143604 | 64 | 92 | 0.0 | 0.0 | 0.00 | 0.00 | 0.00 | 37 | 1014.7 |
| 20260901143104 | 64 | 92 | 0.0 | 0.0 | 0.00 | 0.00 | 0.00 | 38 | 1014.7 |
| 20260901142604 | 64 | 92 | 0.0 | 0.0 | 0.00 | 0.00 | 0.00 | 38 | 1014.6 |
| 20260901142103 | 64 | 92 | 0.0 | 1.0 | 0.00 | 0.00 | 0.00 | 36 | 1014.5 |
| 20260901141604 | 63 | 92 | 0.0 | 1.0 | 0.00 | 0.00 | 0.00 | 37 | 1014.4 |
| 20260901141103 | 63 | 92 | 0.0 | 1.0 | 0.00 | 0.00 | 0.00 | 37 | 1014.3 |
| 20260901140604 | 62 | 92 | 1.0 | 2.0 | 0.00 | 0.00 | 0.00 | 39 | 1014.3 |
| 20260901140105 | 62 | 92 | 1.0 | 2.0 | 0.00 | 0.00 | 0.00 | 39 | 1014.2 |
| 20260901135608 | 62 | 92 | 0.0 | 2.0 | 0.00 | 0.00 | 0.00 | 37 | 1014.2 |
| 20260901135104 | 63 | 92 | 1.0 | 2.0 | 0.00 | 0.00 | 0.00 | 38 | 1014.2 |
| 20260901134604 | 62 | 92 | 0.0 | 2.0 | 0.00 | 0.00 | 0.00 | 34 | 1014.2 |
| 20260901134105 | 62 | 92 | 1.0 | 2.0 | 0.00 | 0.00 | 0.00 | 33 | 1014.1 |
| 20260901133105 | 62 | 92 | 0.0 | 2.0 | 0.00 | 0.00 | 0.00 | 34 | 1013.8 |
| 20260901132604 | 63 | 92 | 1.0 | 2.0 | 0.00 | 0.00 | 0.00 | 33 | 1013.8 |
| 20260901132104 | 63 | 92 | 1.0 | 2.0 | 0.00 | 0.00 | 0.00 | 31 | 1013.7 |
| 20260901131604 | 63 | 92 | 1.0 | 2.0 | 0.00 | 0.00 | 0.00 | 32 | 1013.8 |
| 20260901131103 | 63 | 92 | 1.0 | 2.0 | 0.00 | 0.00 | 0.00 | 33 | 1013.8 |
| 20260901130605 | 63 | 92 | 2.0 | 2.0 | 0.00 | 0.00 | 0.00 | 33 | 1013.7 |
| 20260901130105 | 63 | 92 | 1.0 | 2.0 | 0.00 | 0.00 | 0.00 | 35 | 1013.7 |
| 20260901125606 | 62 | 92 | 0.0 | 2.0 | 0.00 | 0.00 | 0.00 | 37 | 1013.7 |
| 20260901124604 | 62 | 92 | 1.0 | 2.0 | 0.00 | 0.00 | 0.00 | 36 | 1013.7 |
| 20260901124104 | 62 | 92 | 1.0 | 2.0 | 0.00 | 0.00 | 0.00 | 35 | 1013.7 |
| 20260901123604 | 63 | 92 | 1.0 | 2.0 | 0.00 | 0.00 | 0.00 | 35 | 1013.7 |
| 20260901123104 | 63 | 92 | 1.0 | 2.0 | 0.00 | 0.00 | 0.00 | 35 | 1013.7 |
| 20260901122604 | 63 | 92 | 1.0 | 2.0 | 0.00 | 0.00 | 0.00 | 36 | 1013.7 |
| 20260901122104 | 63 | 92 | 1.0 | 2.0 | 0.00 | 0.00 | 0.00 | 36 | 1013.8 |
| 20260901121604 | 63 | 92 | 1.0 | 2.0 | 0.00 | 0.00 | 0.00 | 35 | 1013.7 |
| 20260901121104 | 63 | 92 | 1.0 | 2.0 | 0.00 | 0.00 | 0.00 | 35 | 1013.7 |
| 20260901120604 | 63 | 92 | 1.0 | 2.0 | 0.00 | 0.00 | 0.00 | 35 | 1013.7 |
| 20260901115104 | 63 | 92 | 0.0 | 2.0 | 0.00 | 0.00 | 0.00 | 35 | 1013.7 |
| 20260901114104 | 63 | 92 | 1.0 | 2.0 | 0.00 | 0.00 | 0.00 | 34 | 1013.8 |
| 20260901113604 | 63 | 92 | 0.0 | 1.0 | 0.00 | 0.00 | 0.00 | 34 | 1013.8 |
| 20260901113104 | 64 | 92 | 0.0 | 1.0 | 0.00 | 0.00 | 0.00 | 34 | 1013.8 |
| 20260901112605 | 64 | 92 | 0.0 | 2.0 | 0.00 | 0.00 | 0.00 | 34 | 1013.9 |
| 20260901112104 | 64 | 92 | 1.0 | 2.0 | 0.00 | 0.00 | 0.00 | 34 | 1013.9 |
| 20260901111604 | 64 | 92 | 1.0 | 2.0 | 0.00 | 0.00 | 0.00 | 34 | 1014.0 |
| 20260901111104 | 64 | 92 | 1.0 | 2.0 | 0.00 | 0.00 | 0.00 | 34 | 1014.1 |
| 20260901110104 | 64 | 92 | 0.0 | 2.0 | 0.00 | 0.00 | 0.00 | 33 | 1014.1 |
| 20260901105607 | 64 | 92 | 1.0 | 2.0 | 0.00 | 0.00 | 0.00 | 33 | 1014.1 |
| 20260901105104 | 65 | 92 | 1.0 | 2.0 | 0.00 | 0.00 | 0.00 | 33 | 1014.1 |
| 20260901104103 | 65 | 92 | 1.0 | 2.0 | 0.00 | 0.00 | 0.00 | 34 | 1014.1 |
| 20260901103104 | 65 | 92 | 1.0 | 2.0 | 0.00 | 0.00 | 0.00 | 34 | 1014.0 |
| 20260901102604 | 65 | 92 | 1.0 | 2.0 | 0.00 | 0.00 | 0.00 | 33 | 1014.0 |
| 20260901101608 | 65 | 92 | 1.0 | 2.0 | 0.00 | 0.00 | 0.00 | 33 | 1014.0 |